This is the latest recevied weather packets stored in our database for station/object KQ4JKJ. If no packets are shown the sender has not sent any weather packets the latest 10 day(s).
| Time | Temp. | Humidity | Pressure | Rain* | Wind** | Luminosity | Snow |
|---|---|---|---|---|---|---|---|
| 1778017239 | 26.67° C | 62% | 1009.8 hPa | 0 mm | - | 184 W/m² | - |
| 1778016937 | 26.67° C | 60% | 1009.8 hPa | 0 mm | - | 228 W/m² | - |
| 1778016633 | 26.67° C | 60% | 1009.8 hPa | 0 mm | - | 214 W/m² | - |
| 1778016329 | 27.22° C | 57% | 1009.7 hPa | 0 mm | - | 256 W/m² | - |
| 1778016027 | 27.22° C | 56% | 1009.7 hPa | 0 mm | - | 291 W/m² | - |
| 1778015724 | 27.22° C | 55% | 1009.6 hPa | 0 mm | - | 322 W/m² | - |
| 1778015420 | 27.22° C | 56% | 1009.6 hPa | 0 mm | - | 338 W/m² | - |
| 1778015117 | 27.22° C | 56% | 1009.8 hPa | 0 mm | - | 315 W/m² | - |
| 1778014814 | 27.22° C | 58% | 1009.8 hPa | 0 mm | - | 344 W/m² | - |
| 1778014512 | 27.22° C | 57% | 1009.8 hPa | 0 mm | - | 344 W/m² | - |
| 1778014209 | 27.78° C | 58% | 1009.4 hPa | 0 mm | - | 352 W/m² | - |
| 1778013907 | 27.78° C | 57% | 1009.8 hPa | 0 mm | - | 406 W/m² | - |
| 1778013604 | 27.22° C | 55% | 1009.8 hPa | 0 mm | - | 382 W/m² | - |
| 1778013300 | 27.78° C | 54% | 1009.8 hPa | 0 mm | - | 389 W/m² | - |
| 1778012996 | 27.78° C | 52% | 1009.9 hPa | 0 mm | - | 412 W/m² | - |
| 1778012693 | 27.78° C | 50% | 1009.9 hPa | 0 mm | - | 403 W/m² | - |
| 1778012389 | 27.78° C | 51% | 1009.9 hPa | 0 mm | - | 500 W/m² | - |
| 1778012086 | 27.78° C | 52% | 1009.9 hPa | 0 mm | - | 497 W/m² | - |
| 1778011784 | 28.33° C | 51% | 1009.9 hPa | 0 mm | - | 494 W/m² | - |
| 1778011482 | 27.78° C | 50% | 1010 hPa | 0 mm | - | 509 W/m² | - |
| 1778011177 | 27.78° C | 51% | 1010.2 hPa | 0 mm | - | 563 W/m² | - |
| 1778010874 | 28.33° C | 52% | 1010.1 hPa | 0 mm | - | 538 W/m² | - |
| 1778010572 | 28.33° C | 50% | 1010.1 hPa | 0 mm | - | 555 W/m² | - |
| 1778010269 | 28.33° C | 50% | 1010.3 hPa | 0 mm | - | 560 W/m² | - |
| 1778009969 | 28.33° C | 53% | 1010.3 hPa | 0 mm | - | 569 W/m² | - |
* Rain latest hour (hover to see other rain measurements)
** Current wind speed in m/s (hover to see current wind gust speed)